Waarnemingen

Advertentie
Mijn weer
Stockholm/Arlanda, Zweden (2460): temperatuur & dauwpunt: 15.08.2018 06:00:00 - 21.08.2018 06:00:00 (CEST)Stockholm/Arlanda, Zweden (2460): windsnelheid: 15.08.2018 06:00:00 - 21.08.2018 06:00:00 (CEST)Stockholm/Arlanda, Zweden (2460): windrichting: 15.08.2018 06:00:00 - 21.08.2018 06:00:00 (CEST)Stockholm/Arlanda, Zweden (2460): luchtdruk: 15.08.2018 06:00:00 - 21.08.2018 06:00:00 (CEST)Stockholm/Arlanda, Zweden (2460): zicht: 15.08.2018 06:00:00 - 21.08.2018 06:00:00 (CEST)
Datum & Tijd tt [°C] td [°C] ff [km/u] ff [kn] dd ppp [hPa] vv [km]
21.08.2018 06:00:00 - - - - - - -
21.08.2018 05:00:00 - - - - - - -
21.08.2018 04:00:00 - - - - - - -
21.08.2018 03:00:00 - - - - - - -
21.08.2018 02:00:00 - - - - - - -
21.08.2018 01:00:00 - - - - - - -
21.08.2018 00:00:00 - - - - - - -
20.08.2018 23:00:00 - - - - - - -
20.08.2018 22:00:00 - - - - - - -
20.08.2018 21:00:00 - - - - - - -
20.08.2018 20:00:00 - - - - - - -
20.08.2018 19:00:00 - - - - - - -
20.08.2018 18:00:00 - - - - - - -
20.08.2018 17:00:00 - - - - - - -
20.08.2018 16:00:00 - - - - - - -
20.08.2018 15:00:00 17,2 10,8 22 12 N 1006,2 50
20.08.2018 14:00:00 18,2 11,3 18 10 N 1006,6 50
20.08.2018 13:00:00 18,6 11,4 11 6 N 1006,5 50
20.08.2018 12:00:00 18,1 10,7 7 4 N 1006,6 45
20.08.2018 11:00:00 17,3 10,7 7 4 NNW 1007,0 40
20.08.2018 10:00:00 16,9 10,5 7 4 WZW 1007,2 45
20.08.2018 09:00:00 15,9 10,9 7 4 WZW 1007,3 45
20.08.2018 08:00:00 14,9 10,9 4 2 W 1007,5 35
20.08.2018 07:00:00 13,9 11,1 4 2 NNW 1008,0 35
20.08.2018 06:00:00 11,1 10,2 4 2 ZZW 1008,3 40
20.08.2018 05:00:00 10,5 8,9 0 0 N 1008,9 40
20.08.2018 04:00:00 13,8 10,2 4 2 ZZW 1009,3 45
20.08.2018 03:00:00 14,7 10,1 7 4 ZZW 1009,6 45
20.08.2018 02:00:00 14,9 9,9 4 2 ZZW 1009,9 50
20.08.2018 01:00:00 15,0 10,0 4 2 ZW 1010,2 50
20.08.2018 00:00:00 15,3 9,9 7 4 ZZW 1010,4 45
19.08.2018 23:00:00 15,6 9,7 7 4 ZW 1010,6 45
19.08.2018 22:00:00 16,0 9,2 11 6 ZW 1010,9 45
19.08.2018 21:00:00 16,4 8,6 11 6 ZW 1011,2 6
19.08.2018 20:00:00 17,2 9,1 7 4 ZW 1011,2 50
19.08.2018 19:00:00 18,5 9,6 18 10 ZW 1011,4 50
19.08.2018 18:00:00 19,5 10,2 18 10 ZW 1011,4 45
19.08.2018 17:00:00 20,1 9,0 18 10 ZW 1011,4 50
19.08.2018 16:00:00 20,2 9,7 18 10 WZW 1011,3 50
19.08.2018 15:00:00 20,3 9,5 11 6 W 1011,2 35
19.08.2018 14:00:00 19,9 10,3 18 10 WZW 1011,1 45
19.08.2018 13:00:00 18,5 9,3 18 10 WZW 1010,7 45
19.08.2018 12:00:00 18,5 9,3 18 10 WZW 1010,7 45
19.08.2018 11:00:00 18,7 10,3 18 10 WZW 1010,3 30
19.08.2018 10:00:00 17,2 10,8 18 10 W 1010,2 45
19.08.2018 09:00:00 16,9 11,2 22 12 WZW 1010,0 40
19.08.2018 08:00:00 16,2 11,6 18 10 WZW 1010,0 40
19.08.2018 07:00:00 15,8 12,0 18 10 WZW 1009,9 45
19.08.2018 06:00:00 16,0 12,4 18 10 WZW 1009,5 40
19.08.2018 05:00:00 16,2 12,7 18 10 WZW 1008,9 50
19.08.2018 04:00:00 16,7 13,2 22 12 WZW 1008,7 50
19.08.2018 03:00:00 16,1 15,1 14 8 ZW 1008,8 50
19.08.2018 02:00:00 17,1 14,4 18 10 ZZW 1008,8 50
19.08.2018 01:00:00 17,9 13,6 22 12 ZW 1009,1 24
19.08.2018 00:00:00 18,1 13,0 22 12 ZZW 1009,0 50
18.08.2018 23:00:00 18,5 12,3 22 12 ZZW 1009,4 45
18.08.2018 22:00:00 18,7 12,0 25 14 ZZW 1009,7 50
18.08.2018 21:00:00 19,0 10,8 22 12 ZZW 1010,2 50
18.08.2018 20:00:00 19,4 9,9 22 12 ZZW 1010,5 50
18.08.2018 19:00:00 19,7 9,6 18 10 ZZW 1010,6 50
18.08.2018 18:00:00 20,2 9,4 22 12 ZZW 1011,2 50
18.08.2018 17:00:00 20,1 9,6 18 10 ZZW 1011,9 45
18.08.2018 16:00:00 20,9 10,1 22 12 ZZW 1012,3 45
18.08.2018 15:00:00 20,4 9,6 25 14 ZZW 1012,7 35
18.08.2018 14:00:00 20,2 10,0 25 14 ZZW 1013,5 45
18.08.2018 13:00:00 19,3 10,0 18 10 ZZW 1013,6 45
18.08.2018 12:00:00 18,6 10,4 22 12 ZW 1014,2 45
18.08.2018 11:00:00 17,7 9,8 22 12 ZW 1014,6 35
18.08.2018 10:00:00 17,4 10,8 18 10 ZW 1014,9 40
18.08.2018 09:00:00 16,5 12,3 14 8 WZW 1015,0 30
18.08.2018 08:00:00 15,2 13,0 11 6 WZW 1015,2 40
18.08.2018 07:00:00 13,6 12,2 7 4 ZW 1015,1 35
18.08.2018 06:00:00 12,0 11,2 7 4 Z 1014,9 35
18.08.2018 05:00:00 10,6 10,1 0 0 N 1014,9 40
18.08.2018 04:00:00 12,3 11,2 4 2 ZZW 1014,7 35
18.08.2018 03:00:00 13,0 11,7 4 2 ZZW 1014,6 50
18.08.2018 02:00:00 13,6 12,2 7 4 Z 1014,6 40
18.08.2018 01:00:00 14,0 12,6 7 4 ZZW 1014,4 45
18.08.2018 00:00:00 14,2 12,9 4 2 ZW 1013,9 45
17.08.2018 23:00:00 14,8 13,7 0 0 N 1013,6 50
17.08.2018 22:00:00 16,1 13,8 7 4 ZW 1013,7 40
17.08.2018 21:00:00 17,6 16,1 7 4 ZZW 1013,3 35
17.08.2018 20:00:00 17,6 17,3 7 4 ZZW 1013,1 10
17.08.2018 19:00:00 17,6 17,0 7 4 ZZO 1012,3 19
17.08.2018 18:00:00 17,6 16,6 7 4 ZZW 1012,7 9
17.08.2018 17:00:00 19,0 15,7 18 10 Z 1012,1 45
17.08.2018 16:00:00 20,9 16,5 18 10 Z 1012,4 18
17.08.2018 15:00:00 24,6 12,9 36 19 ZZW 1012,3 40
17.08.2018 14:00:00 26,1 15,2 29 16 Z 1012,0 40
17.08.2018 13:00:00 25,0 15,9 29 16 Z 1012,9 45
17.08.2018 12:00:00 24,7 16,4 18 10 ZZW 1013,3 30
17.08.2018 11:00:00 23,6 16,6 22 12 Z 1013,7 40
17.08.2018 10:00:00 21,8 16,7 22 12 Z 1013,7 45
17.08.2018 09:00:00 20,8 16,6 22 12 Z 1013,7 45
17.08.2018 08:00:00 20,1 15,9 22 12 Z 1013,8 45
17.08.2018 07:00:00 19,5 15,6 18 10 Z 1013,9 35
17.08.2018 06:00:00 19,2 15,3 18 10 Z 1013,8 40
17.08.2018 05:00:00 19,0 15,7 22 12 Z 1013,9 45
17.08.2018 04:00:00 19,0 16,2 18 10 Z 1013,8 30
17.08.2018 03:00:00 19,0 16,8 18 10 ZZO 1013,7 25
17.08.2018 02:00:00 19,2 17,3 18 10 Z 1013,9 25
17.08.2018 01:00:00 19,1 16,9 18 10 ZZO 1013,9 35
17.08.2018 00:00:00 19,7 16,9 22 12 ZZO 1014,1 35
16.08.2018 23:00:00 19,9 16,5 18 10 Z 1014,0 35
16.08.2018 22:00:00 20,4 16,2 22 12 Z 1014,1 45
16.08.2018 21:00:00 20,6 15,6 22 12 Z 1014,1 50
16.08.2018 20:00:00 21,2 15,3 22 12 Z 1014,0 50
16.08.2018 19:00:00 21,6 14,7 29 16 Z 1014,0 45
16.08.2018 18:00:00 22,4 15,0 29 16 Z 1014,3 50
16.08.2018 17:00:00 22,7 15,0 29 16 Z 1014,5 45
16.08.2018 16:00:00 23,1 13,8 22 12 Z 1014,5 45
16.08.2018 15:00:00 23,4 13,8 18 10 Z 1014,7 40
16.08.2018 14:00:00 23,2 13,7 22 12 Z 1014,9 50
16.08.2018 13:00:00 22,9 14,2 22 12 Z 1015,0 50
16.08.2018 12:00:00 22,3 13,1 18 10 Z 1015,2 45
16.08.2018 11:00:00 21,5 14,4 22 12 ZZW 1015,5 50
16.08.2018 10:00:00 20,5 14,6 18 10 Z 1015,5 50
16.08.2018 09:00:00 19,0 14,9 11 6 ZZW 1015,6 45
16.08.2018 08:00:00 17,4 14,9 7 4 Z 1015,5 45
16.08.2018 07:00:00 15,2 14,4 7 4 ZZO 1015,5 40
16.08.2018 06:00:00 14,2 13,7 11 6 Z 1015,3 35
16.08.2018 05:00:00 14,1 13,6 11 6 Z 1015,2 35
16.08.2018 04:00:00 13,7 13,2 0 0 N 1015,0 30
16.08.2018 03:00:00 13,4 12,9 7 4 ZO 1014,9 40
16.08.2018 02:00:00 13,5 13,0 4 2 ZZO 1015,0 30
16.08.2018 01:00:00 13,7 12,9 0 0 N 1015,1 50
16.08.2018 00:00:00 14,4 12,6 7 4 ZZO 1014,8 50
15.08.2018 23:00:00 15,5 12,6 11 6 ZO 1014,5 50
15.08.2018 22:00:00 16,8 12,1 14 8 ZZO 1014,2 50
15.08.2018 21:00:00 17,8 11,8 11 6 ZO 1013,9 50
15.08.2018 20:00:00 18,3 11,4 11 6 ZZO 1013,5 50
15.08.2018 19:00:00 19,0 11,8 11 6 Z 1013,3 50
15.08.2018 18:00:00 19,1 11,6 7 4 ZO 1013,0 45
15.08.2018 17:00:00 19,3 11,6 7 4 OZO 1012,7 40
15.08.2018 16:00:00 18,9 11,5 7 4 OZO 1012,6 45
15.08.2018 15:00:00 19,0 11,6 7 4 ONO 1012,4 50
15.08.2018 14:00:00 19,8 11,0 11 6 NO 1011,8 45
15.08.2018 13:00:00 18,9 10,7 4 2 ZW 1011,4 45
15.08.2018 12:00:00 18,6 10,4 14 8 OZO 1011,3 45
15.08.2018 11:00:00 17,7 11,7 11 6 ONO 1011,0 50
15.08.2018 10:00:00 17,1 13,0 7 4 NO 1010,7 45
15.08.2018 09:00:00 16,0 13,5 7 4 NNO 1010,1 50
15.08.2018 08:00:00 14,4 13,6 7 4 NNW 1009,8 45
15.08.2018 07:00:00 13,8 13,3 7 4 N 1009,6 45
15.08.2018 06:00:00 13,4 13,2 0 0 N 1009,2 35

tt = temperatuur
td = dauwpunt
ff = windsnelheid
dd = windrichting
ppp = luchtdruk
vv = zicht

Weerstations in de omgeving